TimeEDT,TemperatureF,Dew PointF,Humidity,Sea Level PressureIn,VisibilityMPH,Wind Direction,Wind SpeedMPH,Gust SpeedMPH,PrecipitationIn,Events,Conditions,WindDirDegrees,DateUTC
12:53 AM,46.9,45.0,93,30.08,10.0,NW,5.8,-,0.00,Rain,Light Rain,310,2012-10-08 04:53:00
1:53 AM,48.0,44.1,86,30.08,10.0,NW,5.8,-,0.00,,Overcast,320,2012-10-08 05:53:00
2:53 AM,46.9,43.0,86,30.07,10.0,NW,8.1,-,N/A,,Scattered Clouds,320,2012-10-08 06:53:00
3:53 AM,46.0,43.0,89,30.09,10.0,NNW,6.9,-,N/A,,Partly Cloudy,340,2012-10-08 07:53:00
4:53 AM,45.0,42.1,90,30.11,10.0,NNW,4.6,-,N/A,,Clear,340,2012-10-08 08:53:00
5:53 AM,44.1,41.0,89,30.13,10.0,NNW,4.6,-,N/A,,Clear,340,2012-10-08 09:53:00
6:53 AM,44.1,39.9,85,30.15,10.0,NW,4.6,-,N/A,,Clear,320,2012-10-08 10:53:00
7:53 AM,46.9,42.1,83,30.18,10.0,NW,6.9,-,N/A,,Clear,320,2012-10-08 11:53:00
8:53 AM,48.9,43.0,80,30.21,10.0,Variable,6.9,-,N/A,,Clear,0,2012-10-08 12:53:00
9:53 AM,51.1,42.1,71,30.22,10.0,NNW,9.2,-,N/A,,Clear,340,2012-10-08 13:53:00
10:53 AM,53.1,42.1,66,30.24,10.0,North,6.9,-,N/A,,Clear,360,2012-10-08 14:53:00
11:53 AM,53.1,41.0,64,30.25,10.0,NNW,4.6,-,N/A,,Clear,330,2012-10-08 15:53:00
12:53 PM,55.9,42.1,60,30.24,10.0,Calm,Calm,-,N/A,,Clear,0,2012-10-08 16:53:00
1:53 PM,55.0,41.0,59,30.25,10.0,Calm,Calm,-,N/A,,Clear,0,2012-10-08 17:53:00
2:53 PM,53.1,42.1,66,30.27,10.0,South,4.6,-,N/A,,Overcast,180,2012-10-08 18:53:00
3:53 PM,53.1,42.1,66,30.25,10.0,South,3.5,-,N/A,,Scattered Clouds,190,2012-10-08 19:53:00
4:53 PM,53.1,43.0,69,30.25,10.0,Calm,Calm,-,N/A,,Scattered Clouds,0,2012-10-08 20:53:00
5:53 PM,52.0,44.1,74,30.26,10.0,Calm,Calm,-,N/A,,Partly Cloudy,0,2012-10-08 21:53:00
6:53 PM,51.1,45.0,80,30.28,10.0,Calm,Calm,-,N/A,,Mostly Cloudy,0,2012-10-08 22:53:00
7:53 PM,50.0,46.0,86,30.29,10.0,Calm,Calm,-,N/A,,Overcast,0,2012-10-08 23:53:00
8:53 PM,50.0,46.0,86,30.30,10.0,Calm,Calm,-,N/A,,Mostly Cloudy,0,2012-10-09 00:53:00
9:53 PM,51.1,45.0,80,30.28,10.0,NE,3.5,-,N/A,,Clear,50,2012-10-09 01:53:00
10:53 PM,51.1,45.0,80,30.28,10.0,NE,3.5,-,N/A,,Clear,40,2012-10-09 02:53:00
11:53 PM,51.1,46.0,83,30.27,10.0,NE,4.6,-,N/A,,Partly Cloudy,50,2012-10-09 03:53:00